Location: Feudal
(51.8839°N, 107.6105°W)
Time: 06:08:37
(UTC+00:00)

Envisat - Pass Details

Date: 21 January 2022
Orbit: 764 x 765 km, 98.2° (Epoch: 25 May)

Event Time Altitude Azimuth Distance (km) Brightness Sun altitude
Rises 00:19:56 0° 206° (SSW) 3,220 7.1 -6.6°
Reaches altitude 10° 00:22:47 10° 222° (SW) 2,299 6.7 -7.0°
Maximum altitude 00:26:33 21° 271° (W) 1,687 5.8 -7.5°
Drops below altitude 10° 00:30:20 10° 319° (NW) 2,312 5.7 -8.0°
Sets 00:33:14 0° 336° (NNW) 3,244 6.3 -8.4°
